Location: Chervonnoye
(48.6000°N, 34.4000°E)
Time: 21:42:48
(UTC+00:00)

RS-44 - Pass Details

Date: 03 December 2022
Orbit: 1174 x 1511 km, 82.5° (Epoch: 01 February)

Event Time Altitude Azimuth Distance (km) Brightness Sun altitude
Exits shadow 03:42:00 18° 299° (WNW) 2,979 ? -14.8°
Maximum altitude 03:43:06 19° 309° (NW) 2,966 ? -14.6°
Drops below altitude 10° 03:48:52 10° 350° (N) 3,648 ? -13.7°
Sets 03:53:08 0° 8° (N) 4,657 ? -13.1°
